Latest Coastal Weather Observations for Lihou Reef Lighthouse

IDQ60701

Issued at 10:31 pm EST Thursday 18 December 2014 (issued every 10 minutes, with the page automatically refreshed every 10 minutes)

About coastal observations | Map of coastal stations | Coastal observations for QLD | Marine services | Other Formats
Station Details ID: 200880 Name: LIHOU REEF LIGHTHOUSE Lat: -17.13 Lon: 152.15 Height: 0.0 m
Data from the previous 72 hours. | See also: Recent months for locations in Queensland
Date/Time
EST
Temp

°C
Wind Pressure Rain
since 9am
mm
Weather Cloud Vis
km
Sea
Height
m
Swell
Dir
 
Speed
knots
Gust
knots
hPa Trend Height
m
Period
s
Dir
18/10:30pm 27.0 ESE 7 9 1012.3 - - - - - - - - -
18/10:00pm 27.0 E 8 9 1012.2 - - - - - - - - -
18/09:30pm 27.0 ESE 9 12 1011.9 - - - - - - - - -
18/09:00pm 27.0 E 8 11 1011.5 - - - - - - - - -
18/08:30pm 27.0 E 9 11 1011.2 - - - - - - - - -
18/08:00pm 27.0 ESE 7 8 1011.2 - - - - - - - - -
18/07:30pm 26.9 E 8 10 1010.8 - - - - - - - - -
18/07:00pm 27.0 E 8 9 1010.5 - - - - - - - - -
18/06:30pm 27.0 E 9 10 1010.2 - - - - - - - - -
18/06:00pm 27.0 E 9 10 1010.1 - - - - - - - - -
18/05:30pm 27.2 E 8 11 1010.2 - - - - - - - - -
18/05:00pm 27.4 E 8 10 1009.8 - - - - - - - - -
18/04:30pm 27.8 ESE 7 9 1009.7 - - - - - - - - -
18/04:00pm 27.5 ESE 8 10 1009.8 - - - - - - - - -
18/03:30pm 27.6 ESE 8 10 1010.0 - - - - - - - - -
18/03:00pm 27.7 ESE 7 9 1010.1 - - - - - - - - -
18/02:30pm 27.5 ESE 7 9 1010.3 - - - - - - - - -
18/02:00pm 27.6 ESE 7 9 1010.8 - - - - - - - - -
18/01:30pm 27.1 E 6 8 1010.9 - - - - - - - - -
18/01:00pm 27.0 E 7 9 1010.9 - - - - - - - - -
18/12:30pm 27.1 E 6 8 1011.1 - - - - - - - - -
18/12:00pm 27.1 E 6 9 1011.5 - - - - - - - - -
18/11:30am 27.2 E 6 8 1011.9 - - - - - - - - -
18/11:00am 27.2 E 6 8 1012.3 - - - - - - - - -
18/10:30am 27.1 E 7 9 1012.6 - - - - - - - - -
18/10:00am 27.2 E 7 9 1012.7 - - - - - - - - -
18/09:30am 27.2 ENE 7 9 1012.7 - - - - - - - - -
18/09:00am 27.2 ENE 7 9 1012.7 - - - - - - - - -
18/08:30am 27.2 E 8 10 1012.5 - - - - - - - - -
18/08:00am 27.1 E 7 9 1012.6 - - - - - - - - -
18/07:30am 27.0 E 6 10 1012.3 - - - - - - - - -
18/07:00am 26.9 E 8 10 1012.3 - - - - - - - - -
18/06:30am 26.8 ENE 9 11 1012.0 - - - - - - - - -
18/06:00am 26.7 ENE 8 9 1011.6 - - - - - - - - -
18/05:30am 26.5 E 8 10 1011.2 - - - - - - - - -
18/05:00am 26.6 E 8 10 1010.8 - - - - - - - - -
18/04:30am 26.6 E 9 11 1010.5 - - - - - - - - -
18/04:00am 26.4 E 8 10 1010.2 - - - - - - - - -
18/03:30am 26.4 E 8 9 1010.1 - - - - - - - - -
18/03:00am 26.4 E 8 9 1009.9 - - - - - - - - -
18/02:30am 26.4 E 8 9 1010.0 - - - - - - - - -
18/02:00am 26.5 E 6 9 1010.2 - - - - - - - - -
18/01:30am 26.5 E 7 8 1010.5 - - - - - - - - -
18/01:00am 26.5 E 7 8 1010.4 - - - - - - - - -
18/12:30am 26.6 ESE 8 9 1010.5 - - - - - - - - -
18/12:00am 26.6 E 7 9 1010.5 - - - - - - - - -
 
Date/Time
EST
Temp

°C
Wind Pressure Rain
since 9am
mm
Weather Cloud Vis
km
Sea
Height
m
Swell
Dir
 
Speed
knots
Gust
knots
hPa Trend Height
m
Period
s
Dir
17/11:30pm 26.6 E 7 9 1010.5 - - - - - - - - -
17/11:00pm 26.7 E 8 10 1010.6 - - - - - - - - -
17/10:30pm 26.7 E 8 11 1010.7 - - - - - - - - -
17/10:00pm 26.8 ESE 8 10 1010.8 - - - - - - - - -
17/09:30pm 26.8 E 8 10 1010.7 - - - - - - - - -
17/09:00pm 26.8 E 7 10 1010.4 - - - - - - - - -
17/08:30pm 26.9 E 7 9 1010.2 - - - - - - - - -
17/08:00pm 27.0 E 7 8 1010.0 - - - - - - - - -
17/07:30pm 26.9 ESE 6 8 1010.0 - - - - - - - - -
17/07:00pm 27.0 ESE 7 9 1009.6 - - - - - - - - -
17/06:30pm 27.1 E 5 6 1009.7 - - - - - - - - -
17/06:00pm 27.4 E 5 6 1009.6 - - - - - - - - -
17/05:30pm 27.6 ESE 5 6 1009.3 - - - - - - - - -
17/05:00pm 27.5 E 3 4 1008.9 - - - - - - - - -
17/04:30pm 27.5 ESE 3 5 1008.6 - - - - - - - - -
17/04:00pm 27.5 ESE 4 6 1008.4 - - - - - - - - -
17/03:30pm 28.0 ESE 5 6 1008.4 - - - - - - - - -
17/03:00pm 27.8 ESE 4 6 1008.6 - - - - - - - - -
17/02:30pm 27.9 ESE 4 7 1008.7 - - - - - - - - -
17/02:00pm 27.3 E 5 8 1008.8 - - - - - - - - -
17/01:30pm 27.4 E 5 7 1009.1 - - - - - - - - -
17/01:00pm 27.3 E 5 7 1009.5 - - - - - - - - -
17/12:30pm 27.1 E 5 7 1009.5 - - - - - - - - -
17/12:00pm 27.1 E 5 6 1009.7 - - - - - - - - -
17/11:30am 27.2 E 6 8 1009.7 - - - - - - - - -
17/11:00am 27.3 E 6 8 1009.9 - - - - - - - - -
17/10:30am 26.9 E 7 8 1010.0 - - - - - - - - -
17/10:00am 27.3 ESE 6 8 1010.3 - - - - - - - - -
17/09:30am 27.4 ESE 7 9 1010.3 - - - - - - - - -
17/09:00am 27.0 E 7 9 1010.2 - - - - - - - - -
17/08:30am 27.3 E 7 10 1010.1 - - - - - - - - -
17/08:00am 27.2 E 7 10 1010.3 - - - - - - - - -
17/07:30am 26.8 E 7 9 1010.1 - - - - - - - - -
17/07:00am 26.8 ESE 8 9 1010.0 - - - - - - - - -
17/06:30am 26.7 ESE 8 9 1009.8 - - - - - - - - -
17/06:00am 26.5 ESE 8 9 1009.5 - - - - - - - - -
17/05:30am 26.2 ESE 8 9 1009.2 - - - - - - - - -
17/05:00am 26.0 ESE 9 10 1008.7 - - - - - - - - -
17/04:30am 26.1 ESE 9 11 1008.3 - - - - - - - - -
17/04:00am 26.1 ESE 8 10 1008.2 - - - - - - - - -
17/03:30am 26.1 ESE 8 11 1008.1 - - - - - - - - -
17/03:00am 26.3 ESE 8 11 1008.3 - - - - - - - - -
17/02:30am 26.3 ESE 8 9 1008.4 - - - - - - - - -
17/02:00am 26.4 SE 9 11 1008.5 - - - - - - - - -
17/01:30am 26.5 ESE 8 10 1008.7 - - - - - - - - -
17/01:00am 26.6 ESE 9 11 1008.9 - - - - - - - - -
17/12:30am 26.7 ESE 8 9 1009.3 - - - - - - - - -
17/12:00am 26.9 ESE 8 10 1009.6 - - - - - - - - -
 
Date/Time
EST
Temp

°C
Wind Pressure Rain
since 9am
mm
Weather Cloud Vis
km
Sea
Height
m
Swell
Dir
 
Speed
knots
Gust
knots
hPa Trend Height
m
Period
s
Dir
16/11:30pm 27.0 SE 7 9 1010.0 - - - - - - - - -
16/11:00pm 27.0 SE 8 11 1010.3 - - - - - - - - -
16/10:30pm 27.1 SE 7 9 1010.3 - - - - - - - - -
16/10:00pm 27.2 ESE 9 11 1010.2 - - - - - - - - -
16/09:30pm 27.3 ESE 7 10 1010.1 - - - - - - - - -
16/09:00pm 27.4 ESE 8 11 1009.9 - - - - - - - - -
16/08:30pm 27.4 SE 9 11 1009.7 - - - - - - - - -
16/08:00pm 27.5 SE 8 11 1009.7 - - - - - - - - -
16/07:30pm 27.6 SSE 8 11 1009.6 - - - - - - - - -
16/07:00pm 27.6 SE 10 11 1009.4 - - - - - - - - -
16/06:30pm 27.7 SSE 10 12 1009.2 - - - - - - - - -
16/06:00pm 27.9 SSE 11 13 1008.8 - - - - - - - - -
16/05:30pm 28.0 SSE 11 13 1008.7 - - - - - - - - -
16/05:00pm 28.1 SSE 10 12 1008.5 - - - - - - - - -
16/04:30pm 28.0 SSE 9 12 1008.5 - - - - - - - - -
16/04:00pm 28.1 SSE 9 11 1008.3 - - - - - - - - -
16/03:30pm 28.0 S 9 11 1008.3 - - - - - - - - -
16/03:00pm 28.0 SSE 6 8 1008.4 - - - - - - - - -
16/02:30pm 27.8 SE 5 7 1008.7 - - - - - - - - -
16/02:00pm 27.8 SE 5 7 1009.0 - - - - - - - - -
16/01:30pm 27.7 SE 5 5 1009.2 - - - - - - - - -
16/01:00pm 27.5 SE 5 6 1009.4 - - - - - - - - -
16/12:30pm 27.6 SE 4 6 1009.7 - - - - - - - - -
16/12:00pm 27.5 SE 6 8 1009.8 - - - - - - - - -
16/11:30am 27.5 ESE 6 8 1010.1 - - - - - - - - -
16/11:00am 27.6 ESE 8 9 1010.3 - - - - - - - - -
16/10:30am 27.5 SE 9 10 1010.6 - - - - - - - - -
16/10:00am 27.6 ESE 9 11 1010.7 - - - - - - - - -
16/09:30am 27.7 SE 9 12 1010.9 - - - - - - - - -
16/09:00am 27.7 SE 10 12 1010.7 - - - - - - - - -
16/08:30am 27.7 SE 11 14 1010.5 - - - - - - - - -
16/08:00am 27.6 ESE 9 11 1010.4 - - - - - - - - -
16/07:30am 27.2 ESE 9 11 1010.1 - - - - - - - - -
16/07:00am 26.5 ESE 11 17 1010.0 - - - - - - - - -
16/06:30am 27.1 ESE 9 11 1009.7 - - - - - - - - -
16/06:00am 27.0 ESE 11 12 1009.4 - - - - - - - - -
16/05:30am 26.9 SE 11 12 1009.0 - - - - - - - - -
16/05:00am 26.7 SSE 9 10 1008.6 - - - - - - - - -
16/04:30am 26.6 SSE 9 11 1008.5 - - - - - - - - -
16/04:00am 26.5 SSE 10 12 1008.4 - - - - - - - - -
16/03:30am 26.5 SSE 8 10 1008.3 - - - - - - - - -
16/03:00am 26.4 SSE 7 9 1008.4 - - - - - - - - -
16/02:30am 26.6 S 9 11 1008.6 - - - - - - - - -
16/02:00am 26.5 S 10 11 1008.8 - - - - - - - - -
16/01:30am 26.5 S 10 12 1009.1 - - - - - - - - -
16/01:00am 26.6 S 11 12 1009.2 - - - - - - - - -
16/12:30am 26.8 S 11 13 1009.5 - - - - - - - - -
16/12:00am 26.9 S 12 14 1009.9 - - - - - - - - -
 
Date/Time
EST
Temp

°C
Wind Pressure Rain
since 9am
mm
Weather Cloud Vis
km
Sea
Height
m
Swell
Dir
 
Speed
knots
Gust
knots
hPa Trend Height
m
Period
s
Dir
15/11:30pm 26.8 S 11 14 1010.4 - - - - - - - - -
15/11:00pm 26.9 S 12 14 1010.7 - - - - - - - - -

Other Formats:

Comma delimited format used in spreadsheet applications
http://www.bom.gov.au/fwo/IDQ60701/IDQ60701.94293.axf

JavaScript Object Notation format (JSON) in row-major order
http://www.bom.gov.au/fwo/IDQ60701/IDQ60701.94293.json